Lexington Weather

Lexington, Massachusetts, USA

44°F
5/12/2021 5:03am 
  • Lexington Conditions: Clear
  • Temperature: 44.4°F / 6.9°C 
  • Dew Point: 33.4°FIncreased 0.3°Fsince last hour.
  • Relative Humidity: 65%Increased 1.0% since last hour.
  • Wind: Wind from W W 3 mph, 10-min avg: 1 mph, gust: 7 mph
  • Barometer: 29.93 inRising 0.02  inHg/hr Rising Slowly
  • Visibility: 10 miles
  • Rain Today: 0.00 in
  •   

Regional Weather Roundup
for Boston / Norton, MA

        
000
ASUS41 KBOX 112304
RWRBOX

REGIONAL WEATHER ROUNDUP
NATIONAL WEATHER SERVICE BOSTON/NORTON MA
700 PM EDT TUE MAY 11 2021

NOTE:  "FAIR" INDICATES FEW OR NO CLOUDS BELOW 12,000 FEET WITH NO 
SIGNIFICANT WEATHER AND/OR OBSTRUCTIONS TO VISIBILITY.

MAZALL-120000-
EASTERN MASSACHUSETTS
  
CITY           SKY/WX    TMP DP  RH WIND       PRES   REMARKS
BOSTON         PTCLDY    62  21  20 W18G29    29.92R                  
BEVERLY        CLEAR     60  18  19 W15G28    29.91R                  
LAWRENCE       PTCLDY    59  21  23 W15G26    29.92R                  
BEDFORD        PTCLDY    59  23  25 W13G22    29.91R                  
BLUE HILL        N/A     57  23  26 W17G36    29.90S                  
NORWOOD        CLEAR     61  24  24 W15G29    29.92R                  
MARSHFIELD     CLEAR     63  27  25 W9G24     29.91S                  
PLYMOUTH       CLEAR     60  26  27 W12       29.91S                  
TAUNTON        PTCLDY    60  25  26 W8G20     29.92R                  
NEW BEDFORD    MOCLDY    58  39  49 SW13      29.93R                  
$$

MAZALL-120000-
CAPE COD AND THE ISLANDS
  
CITY           SKY/WX    TMP DP  RH WIND       PRES   REMARKS
FALMOUTH       NOT AVBL                                               
HYANNIS        CLOUDY    57  40  52 SW14      29.91S                  
CHATHAM        MOCLDY    56  38  50 W12G25    29.94R                  
PROVINCETOWN   PTCLDY    56  40  55 W10       29.92R                  
NANTUCKET      CLEAR     54  43  66 W18       29.96R                  
MARTHAS VNYRD  CLOUDY    57  37  47 SW14G26   29.95R                  
$$
 
MAZALL-120000-
CENTRAL AND WESTERN MASSACHUSETTS
  
CITY           SKY/WX    TMP DP  RH WIND       PRES   REMARKS
WORCESTER      CLEAR     55  23  28 W13G24    29.94R                  
FITCHBURG      CLEAR     57  23  26 W17G31    29.93R                  
ORANGE         PTCLDY    55  22  27 W16G28    29.97R                  
SPRINGFIELD    PTCLDY    58  24  26 W14G25    29.95R                  
WESTFIELD      CLEAR     57  25  29 NW15      29.96R                  
NORTH ADAMS    MOSUNNY   52  25  35 W25G33    29.98S                  
PITTSFIELD     PTSUNNY   48  28  46 NW17G24   29.98R                  
$$
 
RIZALL-120000-
RHODE ISLAND
  
CITY           SKY/WX    TMP DP  RH WIND       PRES   REMARKS
PROVIDENCE     PTCLDY    62  25  24 W10       29.93S                  
NEWPORT        CLOUDY    54  41  61 SW12G17   29.94R                  
BLOCK ISLAND   CLOUDY    53  43  68 SW20G26   29.98R                  
SMITHFIELD     CLEAR     58  24  27 NW16G23   29.94R                  
WESTERLY       CLOUDY    55  40  56 SW14G28   29.96R                  
$$
 
CTZALL-120000-
CONNECTICUT
  
CITY           SKY/WX    TMP DP  RH WIND       PRES   REMARKS
BRADLEY INTL   PTCLDY    59  25  27 NW14      29.96R                  
HARTFORD       MOCLDY    60  24  25 NW13G18   29.96R                  
BRIDGEPORT     CLOUDY    61  31  32 W8G18     29.98R                  
DANBURY        CLOUDY    59  28  30 W10G16    30.00R                  
GROTON         CLOUDY    60  30  32 W18G24    29.95R                  
NEW HAVEN      CLOUDY    61  34  36 NW14      29.97S                  
CHESTER        FAIR      59  25  27 VRB7G15   29.96S                  
MERIDEN        CLOUDY    60  24  25 W13G21    29.97R                  
WILLIMANTIC    PTCLDY    59  26  28 VRB7      29.95S                  
OXFORD         MOCLDY    57  27  31 W7G17     29.98S                  
$$

MEZ002-015-021-024-NHZ003-005-008-011-012-014-VTZ005-008-120000-
NORTHERN NEW ENGLAND
  
CITY           SKY/WX    TMP DP  RH WIND       PRES   REMARKS
PORTLAND ME    CLOUDY    56  25  30 W10G35    29.86S                  
BANGOR ME      MOCLDY    52  44  74 W3        29.82R                  
CONCORD NH     MOCLDY    56  21  25 W12G21    29.90R                  
MANCHESTER NH  PTCLDY    59  19  21 W13G21    29.89S                  
NASHUA NH      PTCLDY    58  19  22 W13G29    29.92R                  
PORTSMOUTH NH  MOCLDY    58  16  19 W14G23    29.89R                  
JAFFREY NH     PTCLDY    54  19  25 W13G24    29.94R                  
KEENE NH       PTCLDY    54  25  32 W13G24    29.94R                  
BURLINGTON VT  PTSUNNY   51  31  46 W7        29.94R                  
MT. WASHINGTON SNOW      23  23 100 NW46        N/A  VSB 1/16WCI   2  
$$

NYZ052-076-120000-
EASTERN NEW YORK
  
CITY           SKY/WX    TMP DP  RH WIND       PRES   REMARKS
ALBANY         PTSUNNY   50  27  40 W14G22    30.01R                  
NEW YORK CITY  PTSUNNY   63  31  30 W16G30    29.99R                  
$$
 
ANZALL-120000-
MARINE OBSERVATIONS
  
STATION/POSITION TIME  TEMP    WIND        PRES    VSBY  WAVE
                       AIR SEA DIR/SP/G                  HT/PER
                 (UTC) (F)     (DEG/KT/KT) (MB)    (MI)  (FT/S)
BOSTON BUOY      2240   55 50  270/ 16/ 19 1012.6R
BUZZARDS BAY     2200          230/ 24/ 26 1014.4F
NANTUCKET SOUND  2240      53                N/A
MASS BAY-STELLWA 2204   56     270/ 16/ 19 1011.3R  1 7/8  3/ 4
ISLE OF SHOALS   2200   58     290/ 19/ 22 1011.0R
S OF BLOCK IS    2226      50                N/A           5/ 8
$$

......................KEY.........................
  SKY/WX - SKY CONDITION/PRESENT WEATHER
  TMP    - TEMPERATURE IN FAHRENHEIT
  DWPT   - DEWPOINT IN FAHRENHEIT
  RH     - RELATIVE HUMIDITY IN PERCENT
  WIND   - DIRECTION AND SPEED IN MPH
  PRES   - MEAN SEA LEVEL PRESSURE IN INCHES OF HG
  WCI    - WIND CHILL INDEX
  VSB    - VISIBILITY IN MILES
  HX     - HEAT INDEX
  TC     - TEMPERATURE IN CELSIUS
  VRB    - VARIABLE WIND DIRECTION
  N/A    - NOT AVAILABLE
  
      

Other recent Regional Weather Roundups

Wed May 12, 4:04am

Wed May 12, 3:04am

Wed May 12, 2:04am

Wed May 12, 1:04am

Wed May 12, 12:05am

Tue May 11, 11:05pm

Tue May 11, 10:04pm

Tue May 11, 9:05pm

Tue May 11, 8:05pm

Tue May 11, 6:04pm

Tue May 11, 5:04pm

Tue May 11, 4:05pm

Tue May 11, 3:04pm

Tue May 11, 2:05pm

Tue May 11, 1:04pm

Tue May 11, 12:05pm

Tue May 11, 11:05am

Tue May 11, 10:04am

Tue May 11, 9:04am

Tue May 11, 8:04am

Tue May 11, 7:05am

Tue May 11, 6:04am

Tue May 11, 5:04am

Tue May 11, 4:04am

Tue May 11, 3:04am

Tue May 11, 2:04am

Tue May 11, 1:04am

Tue May 11, 12:04am

Mon May 10, 11:04pm

Mon May 10, 10:04pm

Mon May 10, 9:05pm

Mon May 10, 8:04pm

Mon May 10, 7:05pm

Mon May 10, 6:04pm

Mon May 10, 5:04pm

Mon May 10, 4:04pm

Mon May 10, 3:04pm

Mon May 10, 2:04pm

Mon May 10, 1:04pm

Mon May 10, 12:04pm

Mon May 10, 11:05am

Mon May 10, 10:04am

Mon May 10, 9:04am

Mon May 10, 8:04am

Mon May 10, 7:04am

Mon May 10, 6:04am

Mon May 10, 5:05am

Mon May 10, 4:04am

Mon May 10, 3:04am

Mon May 10, 2:04am

Mon May 10, 1:04am

Mon May 10, 12:04am

Sun May 9, 11:04pm

Sun May 9, 10:04pm

Sun May 9, 9:04pm

Sun May 9, 8:04pm

Sun May 9, 7:05pm

Sun May 9, 6:04pm

Sun May 9, 5:04pm

Sun May 9, 4:04pm

Sun May 9, 3:04pm

Sun May 9, 2:04pm

Sun May 9, 1:05pm

Sun May 9, 12:04pm

Sun May 9, 11:05am

Sun May 9, 10:04am

Sun May 9, 9:04am

Sun May 9, 8:04am

Sun May 9, 7:04am

Sun May 9, 6:04am

Sun May 9, 5:04am

Sun May 9, 4:04am

Sun May 9, 3:04am

Sun May 9, 2:04am

Sun May 9, 1:05am

Sun May 9, 12:04am

Sat May 8, 11:05pm

Sat May 8, 10:04pm

Sat May 8, 9:05pm

Sat May 8, 8:04pm

Sat May 8, 7:04pm

Sat May 8, 6:04pm

Sat May 8, 5:05pm

Sat May 8, 4:04pm

Sat May 8, 3:05pm

Sat May 8, 2:05pm

Sat May 8, 1:05pm

Sat May 8, 12:04pm

Sat May 8, 11:05am

Sat May 8, 10:04am

Sat May 8, 9:04am

Sat May 8, 8:04am

Sat May 8, 7:04am

Sat May 8, 6:04am

Sat May 8, 5:04am

Sat May 8, 4:04am

Sat May 8, 3:04am

Sat May 8, 2:04am

Sat May 8, 1:05am

Sat May 8, 12:04am

Fri May 7, 11:04pm

Fri May 7, 10:05pm

Fri May 7, 9:04pm

Fri May 7, 8:04pm

Fri May 7, 7:05pm

Fri May 7, 6:04pm

Fri May 7, 5:05pm

Fri May 7, 4:04pm

Fri May 7, 3:04pm

Fri May 7, 2:05pm

Fri May 7, 1:04pm

Fri May 7, 12:04pm

Fri May 7, 11:05am

Fri May 7, 10:04am

Fri May 7, 9:04am

Fri May 7, 8:05am

Fri May 7, 7:04am

Fri May 7, 6:04am

Fri May 7, 5:04am

Fri May 7, 4:04am

Fri May 7, 3:04am

Fri May 7, 2:05am

Fri May 7, 1:04am

Fri May 7, 12:05am

Thu May 6, 11:04pm

Thu May 6, 10:04pm

Thu May 6, 9:05pm

Thu May 6, 8:04pm

Thu May 6, 7:04pm

Thu May 6, 6:04pm

Thu May 6, 5:05pm

Thu May 6, 4:04pm

Thu May 6, 3:04pm

Thu May 6, 2:05pm

Thu May 6, 1:04pm

Thu May 6, 12:04pm

Thu May 6, 11:04am

Thu May 6, 10:04am

Thu May 6, 9:04am

Thu May 6, 8:04am

Thu May 6, 7:04am

Thu May 6, 6:04am

Thu May 6, 5:04am

Thu May 6, 4:04am

Thu May 6, 3:04am

Thu May 6, 2:05am

Thu May 6, 1:04am

Thu May 6, 12:05am

Wed May 5, 11:04pm

Wed May 5, 10:04pm

Wed May 5, 9:05pm

Wed May 5, 8:04pm

Wed May 5, 7:05pm

Wed May 5, 6:04pm

Wed May 5, 5:04pm

Wed May 5, 4:04pm

Wed May 5, 3:04pm

Wed May 5, 2:05pm

Wed May 5, 1:05pm

Wed May 5, 12:04pm

Wed May 5, 11:05am

Wed May 5, 10:04am

Wed May 5, 9:04am

Wed May 5, 8:04am

Wed May 5, 7:04am

Wed May 5, 6:05am

Wed May 5, 5:04am

Meta data:

ID: cfa5f7e4-b4f3-4e94-be53-a0c2d934b457
Link: https://api.weather.gov/products/cfa5f7e4-b4f3-4e94-be53-a0c2d934b457